Location: ???? ????
(41.4149°N, 22.8816°E)
Time: 15:00:47
(UTC+00:00)

Cosmos 2208 Rocket - Pass Details

Date: 14 July 2020
Orbit: 754 x 806 km, 74.0° (Epoch: 03 August)

Event Time Altitude Azimuth Distance (km) Brightness Sun altitude
Rises 02:05:19 0° 342° (NNW) 3,312 7.6 -10.3°
Reaches altitude 10° 02:07:45 10° 344° (NNW) 2,372 6.9 -9.9°
Maximum altitude 02:13:09 75° 69° (ENE) 819 4.3 -9.2°
Drops below altitude 10° 02:18:26 10° 155° (SSE) 2,322 6.4 -8.4°
Sets 02:20:47 0° 157° (SSE) 3,237 7.1 -8.1°
